#timestamp,LO_Frequency,Hit,StdDev 
1599516015.8,286047001.4,N
1599516035.6,286047001.7,N
1599516055.4,286047001.7,N
1599516075.3,286047001.9,N
1599516095.1,286047002.2,N
1599516115.9,286047001.6,N
1599516135.7,286047002.1,N
1599516155.5,286047001.4,N
1599516175.4,286047001.6,N
1599516195.2,286047002.1,N
1599516215.0,286047001.8,N
1599516215.9,286047001.8,N
1599516235.8,286047002.0,Y
1599516255.6,286047000.5,P
1599516275.5,286047000.0,N
1599516295.3,286047000.6,N
1599516315.1,286047000.7,N
1599516335.9,286047000.5,N
1599516355.7,286047000.3,N
1599516375.5,286046998.6,N
1599516395.4,286046998.6,N
1599516415.2,286046998.5,N
1599516435.1,286046998.9,N
1599516436.0,286046998.9,N
1599516455.8,286047000.4,N
1599516475.6,286046999.7,N
1599516495.5,286046998.6,N
1599516515.3,286046999.9,N
1599516535.1,286047001.2,N
1599516555.9,286047000.7,N
1599516575.7,286046998.5,N
1599516595.6,286047001.1,N
1599516615.4,286047000.8,N
1599516635.2,286047000.0,N
1599516655.1,286047000.6,N
1599516656.0,286047000.6,N
1599516675.8,286047002.7,N
1599516695.6,286047000.4,N
1599516715.5,286046998.5,N
1599516735.3,286046998.6,N
1599516755.2,286046998.4,N
1599516775.9,286046998.8,N
1599516795.7,286047000.9,N
1599516815.6,286047001.2,N
1599516835.4,286047001.0,N
1599516855.2,286047002.7,N
1599516875.1,286047000.1,N
1599516876.0,286047000.1,N
1599516895.8,286047000.5,N
1599516915.7,286047001.2,N
1599516935.5,286046998.6,N
1599516955.3,286047000.5,N
1599516975.2,286047000.8,N
1599516995.9,286047000.6,N
1599517015.7,286047000.7,N
1599517035.6,286047001.0,N
1599517055.4,286047000.5,N
1599517075.3,286047000.4,N
1599517095.1,286047001.2,N
1599517096.0,286047001.2,N
1599517115.8,286047001.0,N
1599517135.7,286047000.9,N
1599517155.5,286046998.3,N
1599517175.3,286046998.3,N
1599517195.2,286047000.9,N
1599517215.0,286047000.8,N
1599517215.9,286047000.8,N
1599517235.8,286047000.8,N
1599517255.6,286047000.9,N
1599517275.4,286047000.3,N
1599517295.3,286047000.3,N
1599517315.1,286047000.8,N
1599517335.8,286046999.7,N
1599517355.7,286047000.8,N
1599517375.5,286047000.1,N
1599517395.4,286046999.8,N
1599517415.2,286047002.7,Y
1599517435.0,286047000.4,P
1599517435.9,286047000.4,P
1599517455.8,286047000.8,P
1599517475.6,286047000.6,Y
1599517495.5,286046998.5,P
1599517515.3,286046998.6,N
1599517535.1,286046998.6,N
1599517555.9,286046999.0,N
1599517575.7,286046999.3,N
1599517595.5,286046998.4,N
1599517615.4,286047000.3,N
1599517635.2,286047000.9,N
1599517655.0,286047002.4,N
1599517656.0,286047002.4,N
1599517675.8,286047000.3,N
1599517695.6,286047001.1,N
1599517715.5,286046998.1,N
1599517735.3,286046998.4,N
1599517785.2,286047001.2,E
1599517795.1,286046998.9,N
1599517796.0,286046998.9,P
1599517815.8,286046997.8,P
1599517835.7,286046996.5,Y
1599517855.5,286046998.2,P
1599517875.3,286046998.6,P
1599517895.2,286047001.1,P
1599517915.0,286047002.3,N
1599517915.9,286047002.3,N
1599517935.8,286047001.0,N
1599517955.6,286047000.6,N
1599517975.4,286047002.7,N
1599517995.3,286047000.0,N
1599518015.1,286047002.2,N
1599518035.9,286047004.4,N
1599518055.7,286047002.1,N
1599518075.5,286047002.6,N
1599518095.4,286047002.0,N
1599518115.2,286047000.1,N
1599518135.0,286047001.5,N
1599518135.9,286047001.5,N
1599518155.8,286047002.2,N
1599518175.6,286047002.6,N
1599518195.5,286047001.5,N
1599518215.3,286047004.3,N
1599518235.1,286047004.0,N
1599518255.9,286047001.7,N
1599518275.7,286047001.7,N
1599518295.6,286047001.3,N
1599518315.4,286047001.5,N
1599518335.2,286047001.4,N
1599518355.1,286047002.6,N
1599518356.0,286047002.6,N
1599518375.8,286047001.5,N
1599518395.6,286047001.4,N
1599518415.5,286047001.8,N
1599518435.3,286047006.0,Y
1599518455.2,286046999.7,P
1599518475.0,286047000.8,N
1599518475.9,286047000.8,N
1599518495.8,286046998.1,N
1599518515.6,286047001.1,N
1599518535.4,286047000.5,N
1599518555.3,286047000.1,N
1599518575.1,286046998.2,N
1599518595.8,286047000.8,N
1599518615.7,286047000.7,N
1599518635.5,286047002.5,N
1599518655.4,286047002.3,N
1599518675.2,286047000.0,N
1599518695.1,286047000.1,N
1599518696.0,286047000.1,N
1599518715.8,286047000.8,N
1599518735.6,286047000.3,N
1599518755.5,286046999.9,N
1599518775.3,286047001.3,N
1599518795.2,286047002.1,N
1599518815.0,286047004.3,Y
1599518815.9,286047004.3,P
1599518835.8,286047002.1,N
1599518855.6,286047001.3,N
1599518875.4,286047000.1,N
1599518895.3,286047002.3,N
1599518915.1,286047001.1,N
1599518935.8,286047001.0,N
1599518955.7,286047002.7,N
1599518975.5,286047001.7,N
1599518995.4,286047002.0,N
1599519015.2,286047002.2,N
1599519035.0,286047002.1,N
1599519035.9,286047002.1,N
1599519055.8,286047000.2,N
1599519075.6,286047000.7,N
1599519095.4,286046998.4,N
1599519115.3,286047000.7,N
1599519135.1,286047000.1,N
1599519155.9,286047000.2,N
1599519175.7,286047002.1,N
1599519195.5,286047003.9,Y
1599519215.4,286047000.8,P
1599519235.2,286047001.2,P
1599519255.0,286047000.9,P
1599519256.0,286047000.9,Y
1599519275.8,286046997.8,P
1599519295.6,286046997.5,N
1599519315.5,286046997.1,N
1599519335.3,286046999.6,N
1599519355.1,286046996.8,N
1599519375.9,286046996.7,N
1599519395.7,286046999.6,N
1599519415.6,286046996.8,N
1599519435.4,286046997.2,N
1599519455.2,286046997.0,N
1599519475.1,286046997.4,N
1599519476.0,286046997.4,N
1599519495.8,286046998.0,N
1599519515.6,286046997.9,N
1599519535.5,286046995.8,Y
1599519555.3,286046998.9,P
1599519575.2,286046998.8,N
1599519595.9,286046998.7,N
